Location: Artiguedieu
(43.5000°N, 0.5454°E)
Time: 07:50:36
(UTC+00:00)

Explorer 7 - Pass Details

Date: 03 August 2021
Orbit: 484 x 676 km, 50.3° (Epoch: 22 September)

Event Time Altitude Azimuth Distance (km) Brightness Sun altitude
Rises 10:23:34 0° 295° (WNW) 2,704 10.0 56.3°
Reaches altitude 10° 10:25:49 10° 288° (WNW) 1,840 9.3 56.6°
Maximum altitude 10:29:46 41° 219° (SW) 850 8.4 57.2°
Drops below altitude 10° 10:33:57 10° 149° (SSE) 1,948 10.3 57.7°
Sets 10:36:25 0° 142° (SE) 2,883 11.0 58.0°
